Hourly Data Report for November 19, 2019

All times are specified in Local Standard Time (LST). Add 1 hour to adjust for Daylight Saving Time where and when it is observed.

PINAWA
MANITOBA
Current Station Operator: ECCC - MSC

50°10'38.020" N
96°03'53.000" W
268.00 m
503B1ER
71448
WEA

Download Data

Hourly Data (November 2019)
Hourly Data Report for November 19, 2019
TIME Temp Definition
°C
Dew Point Definition
°C
Rel Hum Definition
%
Wind Dir Definition
10's deg

Wind Spd Definition
km/h
Visibility Definition
km
Stn Press Definition
kPa
Hmdx Definition


Wind Chill Definition


Weather Definition


00:00 0.4 LegendMM LegendMM 15 6   96.96     LegendNANA
01:00 0.4 LegendMM LegendMM 17 6   96.98     LegendNANA
02:00 0.4 LegendMM LegendMM 15 5   97.00     LegendNANA
03:00 0.4 LegendMM LegendMM 17 4   97.04     LegendNANA
04:00 0.7 LegendMM LegendMM 20 3   97.04     LegendNANA
05:00 1.4 LegendMM LegendMM 30 12   97.11     LegendNANA
06:00 1.2 LegendMM LegendMM 30 14   97.17     LegendNANA
07:00 1.1 LegendMM LegendMM 31 13   97.24     LegendNANA
08:00 1.0 LegendMM LegendMM 31 12   97.30     LegendNANA
09:00 0.8 LegendMM LegendMM 30 12   97.38     LegendNANA
10:00 0.5 LegendMM LegendMM 31 10   97.46     LegendNANA
11:00 0.5 LegendMM LegendMM 30 11   97.52     LegendNANA
12:00 0.4 LegendMM LegendMM 30 15   97.58     LegendNANA
13:00 0.7 LegendMM LegendMM 30 12   97.59     LegendNANA
14:00 0.7 LegendMM LegendMM 30 14   97.66     LegendNANA
15:00 0.7 LegendMM LegendMM 32 12   97.70     LegendNANA
16:00 0.5 LegendMM LegendMM 32 9   97.75     LegendNANA
17:00 0.3 LegendMM LegendMM 31 8   97.82     LegendNANA
18:00 0.1 LegendMM LegendMM 32 8   97.87     LegendNANA
19:00 -0.1 LegendMM LegendMM 31 6   97.98   -2 LegendNANA
20:00 -0.2 LegendMM LegendMM 31 5   98.02   -2 LegendNANA
21:00 -0.3 LegendMM LegendMM 31 5   98.07   -2 LegendNANA
22:00 -0.4 LegendMM LegendMM 33 4   98.12   -2 LegendNANA
23:00 -0.6 LegendMM LegendMM 33 4   98.15   -2 LegendNANA

Notes on Data Quality.

Legend

  • E = Estimated
  • M = Missing
  • NA = Not Available
Date modified: